Date String (YYYY-MM-DD hh:mm:ss) UTC,Instrument flags,Ambient pressure (hPa),Sample flow (lpm),Bypass flow (lpm),Sample temperature (°C),Ambient temperature (°C),ASC tube jacket temperature (°C),LED temperature (°C),Box temperature (°C),Sample RH (%),Span deviation,Mass concentration (μg/m³),Mass concentration (μg/m³),Mass concentration (μg/m³)
DateTimeUTC,F1_M11,P_M11,Q1_M11,Q2_M11,T1_M11,T2_M11,T3_M11,T4_M11,T5_M11,U1_M11,ZSPAN_M11,X0_M11,X2_M11,X1_M11
2022-05-06 00:00:00,,0822.2,5.01,0.00,30.1,29.2,00.0,38.9,31.9,10.3,0000.0,0010.26,0004.47,0003.31
2022-05-06 00:01:00,,0822.2,5.00,0.00,30.1,29.3,00.0,38.9,32.0,10.8,0000.0,0011.03,0004.44,0003.29
2022-05-06 00:02:00,,0822.1,5.00,0.00,30.1,29.3,00.0,38.9,32.0,10.6,0000.0,0011.15,0004.42,0003.27
2022-05-06 00:03:00,,0822.2,5.01,0.00,30.2,29.4,00.0,39.0,32.0,10.4,0000.0,0011.11,0004.41,0003.26
2022-05-06 00:04:00,,0822.1,5.01,0.00,30.2,29.4,00.0,39.0,32.0,10.1,0000.0,0010.75,0004.43,0003.25
2022-05-06 00:05:00,,0822.2,5.00,0.00,30.2,29.4,00.0,39.0,32.1,10.0,0000.0,0010.59,0004.37,0003.25
2022-05-06 00:06:00,,0822.2,4.99,0.00,30.2,29.5,00.0,39.0,32.1,09.8,0000.0,0010.52,0004.37,0003.25
2022-05-06 00:07:00,,0822.2,5.01,0.00,30.2,29.5,00.0,39.0,32.1,09.9,0000.0,0010.29,0004.39,0003.24
2022-05-06 00:08:00,,0822.2,4.99,0.00,30.2,28.2,00.0,39.0,31.8,10.0,0000.0,0010.47,0004.40,0003.24
2022-05-06 00:09:00,,0822.2,5.00,0.00,30.1,26.5,00.0,39.0,31.5,10.4,0000.0,0010.64,0004.45,0003.23
2022-05-06 00:10:00,,0822.1,5.00,0.00,30.0,26.6,00.0,39.0,31.4,11.0,0000.0,0010.20,0004.40,0003.23
2022-05-06 00:11:00,,0822.2,5.00,0.00,29.9,26.9,00.0,38.9,31.4,10.7,0000.0,0010.25,0004.39,0003.22
2022-05-06 00:12:00,,0822.2,5.00,0.00,29.9,27.3,00.0,38.9,31.6,10.5,0000.0,0010.01,0004.40,0003.22
2022-05-06 00:13:00,,0822.1,5.00,0.00,29.9,27.7,00.0,38.9,31.6,10.8,0000.0,0009.83,0004.43,0003.22
2022-05-06 00:14:00,,0822.2,4.99,0.00,29.9,28.0,00.0,38.8,31.6,11.2,0000.0,0009.86,0004.45,0003.22
2022-05-06 00:15:00,,0822.1,5.01,0.00,29.9,28.3,00.0,38.8,31.7,10.7,0000.0,0009.86,0004.41,0003.21
2022-05-06 00:16:00,,0822.2,4.99,0.00,29.9,28.5,00.0,38.9,31.7,09.9,0000.0,0009.67,0004.34,0003.20
2022-05-06 00:17:00,,0822.2,5.01,0.00,30.0,28.7,00.0,38.9,31.8,10.1,0000.0,0009.77,0004.33,0003.18
2022-05-06 00:18:00,,0822.2,5.00,0.00,30.0,28.8,00.0,38.9,31.8,10.1,0000.0,0009.77,0004.35,0003.18
2022-05-06 00:19:00,,0822.2,5.00,0.00,30.0,28.9,00.0,38.9,31.8,10.2,0000.0,0009.70,0004.36,0003.17
2022-05-06 00:20:00,,0822.2,5.00,0.00,30.1,29.0,00.0,38.9,31.9,10.2,0000.0,0009.49,0004.30,0003.16
2022-05-06 00:21:00,,0822.2,5.00,0.00,30.1,29.1,00.0,38.9,31.9,10.4,0000.0,0009.72,0004.33,0003.16
2022-05-06 00:22:00,,0822.2,5.00,0.00,30.1,29.2,00.0,38.9,32.0,10.2,0000.0,0009.68,0004.37,0003.15
2022-05-06 00:23:00,,0822.2,5.00,0.00,30.1,29.2,00.0,38.9,32.0,10.9,0000.0,0009.08,0004.38,0003.15
2022-05-06 00:24:00,,0822.2,5.00,0.00,30.2,29.3,00.0,39.0,32.0,10.1,0000.0,0009.08,0004.37,0003.15
2022-05-06 00:25:00,,0822.2,5.01,0.00,30.2,29.3,00.0,39.0,32.0,09.8,0000.0,0009.09,0004.37,0003.15
2022-05-06 00:26:00,,0822.2,5.01,0.00,30.2,29.4,00.0,39.0,32.0,10.1,0000.0,0009.11,0004.42,0003.15
2022-05-06 00:27:00,,0822.2,5.00,0.00,30.2,29.3,00.0,39.0,32.0,09.9,0000.0,0009.71,0004.49,0003.16
2022-05-06 00:28:00,,0822.2,5.01,0.00,30.2,27.5,00.0,39.0,31.6,09.6,0000.0,0010.04,0004.52,0003.16
2022-05-06 00:29:00,,0822.2,5.00,0.00,30.0,25.4,00.0,38.9,31.1,10.0,0000.0,0009.97,0004.49,0003.17
2022-05-06 00:30:00,,0822.2,5.00,0.00,29.8,25.3,00.0,38.9,31.1,10.3,0000.0,0010.16,0004.44,0003.16
2022-05-06 00:31:00,,0822.2,5.00,0.00,29.8,25.8,00.0,38.8,31.2,10.4,0000.0,0010.47,0004.47,0003.17
2022-05-06 00:32:00,,0822.2,4.99,0.00,29.7,26.4,00.0,38.8,31.3,10.6,0000.0,0010.60,0004.54,0003.18
2022-05-06 00:33:00,,0822.2,5.01,0.00,29.7,26.9,00.0,38.7,31.3,10.6,0000.0,0010.26,0004.48,0003.18
2022-05-06 00:34:00,,0822.2,4.99,0.00,29.7,27.3,00.0,38.7,31.4,10.2,0000.0,0010.16,0004.43,0003.19
2022-05-06 00:35:00,,0822.3,5.01,0.00,29.7,27.7,00.0,38.7,31.4,10.7,0000.0,0010.33,0004.49,0003.19
2022-05-06 00:36:00,,0822.3,5.00,0.00,29.7,28.0,00.0,38.7,31.5,11.4,0000.0,0010.42,0004.49,0003.19
2022-05-06 00:37:00,,0822.3,4.99,0.00,29.8,28.2,00.0,38.7,31.5,10.7,0000.0,0010.30,0004.43,0003.18
2022-05-06 00:38:00,,0822.3,5.00,0.00,29.8,28.4,00.0,38.7,31.5,10.8,0000.0,0009.98,0004.41,0003.18
2022-05-06 00:39:00,,0822.3,5.00,0.00,29.8,28.5,00.0,38.7,31.6,11.5,0000.0,0009.94,0004.46,0003.18
2022-05-06 00:40:00,,0822.3,5.01,0.00,29.8,28.7,00.0,38.7,31.7,11.7,0000.0,0010.02,0004.48,0003.17
2022-05-06 00:41:00,,0822.3,5.00,0.00,29.9,28.8,00.0,38.7,31.7,12.2,0000.0,0009.88,0004.49,0003.16
2022-05-06 00:42:00,,0822.3,4.99,0.00,29.9,28.9,00.0,38.7,31.7,12.0,0000.0,0009.52,0004.44,0003.15
2022-05-06 00:43:00,,0822.3,5.01,0.00,29.9,29.0,00.0,38.7,31.7,11.5,0000.0,0009.42,0004.39,0003.15
2022-05-06 00:44:00,,0822.4,5.00,0.00,30.0,29.0,00.0,38.8,31.8,11.7,0000.0,0009.51,0004.42,0003.14
2022-05-06 00:45:00,,0822.3,5.00,0.00,30.0,29.1,00.0,38.8,31.8,11.7,0000.0,0009.60,0004.45,0003.15
2022-05-06 00:46:00,,0822.3,4.99,0.00,30.0,29.2,00.0,38.8,31.9,11.6,0000.0,0009.52,0004.44,0003.15
2022-05-06 00:47:00,,0822.3,5.00,0.00,30.0,29.2,00.0,38.8,31.9,11.0,0000.0,0009.50,0004.45,0003.15
2022-05-06 00:48:00,,0822.4,5.01,0.00,30.1,29.2,00.0,38.8,31.9,11.1,0000.0,0009.77,0004.52,0003.15
2022-05-06 00:49:00,,0822.3,5.00,0.00,30.1,29.3,00.0,38.9,32.0,11.2,0000.0,0009.77,0004.55,0003.15
2022-05-06 00:50:00,,0822.3,5.01,0.00,30.1,29.3,00.0,38.9,32.0,11.2,0000.0,0009.43,0004.50,0003.15
2022-05-06 00:51:00,,0822.4,5.00,0.00,30.1,29.3,00.0,38.9,32.0,11.2,0000.0,0009.36,0004.47,0003.15
2022-05-06 00:52:00,,0822.4,4.99,0.00,30.2,29.4,00.0,38.9,32.0,11.0,0000.0,0009.15,0004.41,0003.15
2022-05-06 00:53:00,,0822.4,4.99,0.00,30.2,29.4,00.0,39.0,32.1,10.9,0000.0,0009.19,0004.42,0003.14
2022-05-06 00:54:00,,0822.4,5.01,0.00,30.2,28.9,00.0,39.0,32.0,10.8,0000.0,0009.09,0004.40,0003.13
2022-05-06 00:55:00,,0822.3,5.00,0.00,30.1,26.6,00.0,38.9,31.4,10.9,0000.0,0008.95,0004.34,0003.13
2022-05-06 00:56:00,,0822.4,5.00,0.00,29.9,25.1,00.0,38.9,31.1,11.1,0000.0,0009.04,0004.32,0003.12
2022-05-06 00:57:00,,0822.4,5.01,0.00,29.8,25.4,00.0,38.8,31.0,11.1,0000.0,0009.17,0004.34,0003.10
2022-05-06 00:58:00,,0822.4,5.00,0.00,29.7,26.0,00.0,38.8,31.1,11.2,0000.0,0009.25,0004.33,0003.07
2022-05-06 00:59:00,,0822.4,4.99,0.00,29.7,26.5,00.0,38.7,31.2,11.5,0000.0,0008.98,0004.25,0003.02
